Torna al catalogo

CZ-4C R/B

AttivoLEO
NORAD 65234·ROCKET BODY·🇨🇳 China

Lanciato Aug 17, 2025 da Xichang Satellite Launch Center

Loading…

Prossimi Passaggi (prossime 24 ore)

TLE

AggiornatoSource: Space-Track

Epoca: Sep 14, 2026, 10:48 UTC

1 65234U 25177B   26257.45035301  .00000898  00000-0  57831-4 0  9998
2 65234  10.9959 309.4200 0150143 180.0123 180.0110 14.57996617 57448

Traccia CZ-4C R/B in tempo reale con AllMySat

Download on the App Store